Temperature
1 2 2 2 2 2 3 3 3 3 3 3 4 4 4 4 4 4 4 4 4 4 4 5 5 5 5 5 6 6 6 6 6 6 7 7 8 8 8 8 8 9 9
1 1 1 2 2 2 2 2 2 2 3 3 3 3 3 3 3 3 3 4 4 4 4 4 4 4 4 5 5 5 5 6 6 6 6 7 7 7 8 8 8 8 8
1 1 1 1 1 1 1 2 2 2 2 2 2 2 2 2 2 2 3 3 3 3 3 3 3 4 4 4 4 4 5 5 5 5 5 6 7 6 7 7 7 7 8
1 0 0 1 1 1 1 1 1 1 1 1 1 2 2 2 2 2 2 2 2 3 3 3 3 3 3 4 4 4 4 4 4 5 5 5 5 6 6 6 7 7 7
0 0 0 0 0 0 1 1 1 1 1 1 1 1 1 1 1 1 1 2 2 2 2 2 2 2 3 3 3 3 3 3 4 4 4 5 5 5 5 6 6 6 6
-0 -0 -0 -0 -0 0 0 0 0 0 0 0 0 0 0 1 1 1 1 1 1 1 2 2 2 2 2 2 3 3 3 3 3 3 4 4 4 4 5 5 5 6 6
-1 -1 -1 -1 -1 -1 -0 -0 -0 -0 -0 -0 -0 -0 -0 -0 0 0 0 0 1 1 1 1 1 1 2 2 2 2 2 2 3 3 3 3 3 4 4 4 5 5 5
-1 -1 -1 -1 -1 -1 -1 -1 -1 -1 -1 -1 -1 -1 -1 -1 -1 -1 -0 -0 -0 0 1 1 1 1 1 1 1 2 2 2 2 2 3 3 3 3 4 4 4 4 5
-2 -2 -2 -2 -2 -1 -1 -1 -1 -1 -1 -1 -1 -1 -1 -1 -1 -1 -1 -1 -1 -1 -0 0 0 1 1 1 1 1 1 1 2 2 2 2 3 3 3 3 4 4 4
-2 -2 -2 -2 -2 -2 -2 -2 -2 -2 -2 -2 -2 -2 -1 -2 -1 -1 -1 -1 -1 -1 -1 -1 -0 -0 -0 0 0 0 1 1 1 1 2 2 2 2 3 3 3 3 4
-2 -2 -2 -2 -2 -2 -2 -2 -2 -2 -2 -2 -2 -2 -2 -2 -2 -2 -2 -2 -2 -2 -2 -1 -1 -1 -1 -1 -0 -0 -0 0 0 1 1 1 1 2 2 2 3 3 3
-2 -3 -3 -3 -3 -3 -3 -3 -3 -3 -3 -3 -3 -3 -2 -2 -2 -2 -3 -3 -3 -3 -2 -2 -2 -2 -1 -1 -1 -1 -1 -1 -0 -0 0 1 1 1 1 2 2 2 3
-3 -3 -3 -3 -3 -3 -3 -3 -3 -3 -3 -3 -3 -3 -3 -3 -3 -3 -3 -3 -3 -3 -3 -3 -3 -2 -2 -2 -2 -2 -1 -1 -1 -1 -1 -0 0 0 1 1 1 2 2
-3 -3 -3 -4 -4 -4 -4 -4 -4 -4 -4 -4 -4 -4 -4 -4 -4 -4 -4 -4 -4 -4 -4 -4 -3 -3 -3 -3 -3 -2 -2 -2 -2 -2 -1 -1 -1 -0 0 1 1 1 1
-4 -4 -4 -4 -4 -4 -4 -4 -4 -4 -4 -4 -4 -4 -4 -4 -4 -4 -4 -4 -4 -4 -4 -4 -4 -4 -4 -3 -3 -3 -3 -3 -3 -2 -2 -2 -1 -1 -1 -0 0 0 1
-5 -5 -5 -5 -5 -5 -5 -5 -5 -5 -5 -5 -5 -5 -5 -5 -5 -5 -5 -5 -5 -5 -5 -5 -4 -4 -4 -4 -4 -4 -3 -3 -3 -3 -3 -3 -2 -2 -1 -1 -1 -0 -0
-5 -5 -5 -5 -5 -5 -5 -5 -5 -5 -5 -5 -5 -5 -5 -5 -5 -5 -5 -5 -5 -5 -5 -5 -5 -5 -4 -4 -4 -4 -4 -4 -4 -4 -3 -3 -3 -3 -2 -2 -1 -1 -1
-6 -6 -6 -6 -6 -6 -6 -6 -6 -6 -6 -6 -6 -6 -6 -6 -6 -6 -6 -6 -6 -6 -6 -6 -5 -5 -5 -5 -5 -5 -5 -4 -4 -4 -4 -4 -3 -3 -3 -3 -2 -2 -2
-6 -6 -6 -6 -6 -6 -6 -6 -6 -6 -6 -6 -6 -6 -7 -6 -6 -6 -6 -6 -6 -6 -6 -6 -6 -6 -6 -5 -5 -5 -5 -5 -5 -5 -4 -4 -4 -4 -3 -3 -3 -3 -2
-6 -7 -7 -7 -7 -7 -7 -7 -7 -7 -7 -7 -7 -7 -7 -7 -7 -7 -7 -7 -7 -7 -7 -6 -6 -6 -6 -6 -6 -6 -6 -5 -5 -5 -5 -4 -4 -4 -4 -4 -4 -3 -3
-7 -7 -7 -7 -7 -7 -7 -7 -7 -7 -7 -7 -7 -7 -7 -7 -7 -7 -7 -7 -7 -7 -7 -7 -7 -7 -7 -7 -6 -6 -6 -6 -6 -5 -5 -5 -5 -5 -4 -4 -4 -4 -4
-7 -8 -8 -8 -8 -8 -8 -8 -8 -8 -8 -8 -8 -8 -8 -8 -8 -8 -8 -8 -8 -8 -7 -7 -7 -7 -7 -7 -7 -7 -7 -6 -6 -6 -6 -6 -5 -5 -5 -5 -5 -5 -4
-8 -8 -8 -8 -8 -8 -8 -8 -8 -8 -8 -8 -8 -8 -8 -8 -8 -8 -8 -8 -8 -8 -8 -8 -8 -8 -7 -7 -7 -7 -7 -7 -7 -6 -6 -6 -6 -6 -6 -5 -5 -5 -5
-8 -9 -9 -9 -9 -9 -9 -9 -9 -9 -9 -9 -9 -9 -8 -8 -8 -8 -9 -9 -9 -9 -8 -8 -8 -8 -8 -8 -8 -8 -7 -7 -7 -7 -7 -6 -6 -6 -6 -6 -6 -6 -6
-9 -9 -9 -9 -9 -9 -9 -9 -9 -9 -9 -9 -9 -9 -9 -9 -9 -9 -9 -9 -9 -9 -9 -9 -9 -8 -8 -8 -8 -8 -8 -7 -7 -7 -7 -7 -7 -7 -7 -7 -7 -7 -6
-9 -9 -9 -9 -9 -10 -10 -9 -9 -10 -10 -10 -10 -10 -9 -9 -9 -9 -9 -9 -9 -9 -9 -9 -9 -9 -9 -8 -8 -8 -8 -8 -8 -8 -8 -8 -8 -8 -8 -8 -7 -7 -7
Wind_Speed
4 3 2 2 1 0 1 2 3 3 3 3 2 2 2 2 2 3 3 4 4 5 5 4 4 4 4 4 5 4 4 3 2 3 3 4 6 6 5 5 5 5 6
4 3 3 2 1 1 1 1 2 2 3 3 2 2 3 3 3 3 4 4 4 5 5 5 4 4 4 5 5 4 3 3 3 3 3 3 4 4 4 5 5 5 5
4 3 3 2 2 2 1 2 2 2 3 3 3 3 3 3 3 3 3 4 5 5 5 6 5 5 4 4 5 5 5 4 4 4 3 3 3 2 4 5 5 5 5
4 4 3 3 3 2 2 2 2 2 3 3 3 3 3 4 5 4 4 5 5 5 5 6 6 6 5 5 5 5 6 6 5 5 5 6 4 3 3 4 5 5 5
4 4 4 3 3 2 2 2 2 3 3 3 3 4 4 4 5 5 5 5 5 5 5 6 6 6 6 6 6 6 7 6 7 6 5 5 5 7 5 5 6 5 5
4 4 4 3 3 2 2 2 3 3 3 3 4 5 5 6 6 6 6 5 4 5 5 6 6 6 6 7 6 6 8 7 8 7 7 7 6 6 6 6 7 6 5
4 4 4 3 3 3 3 3 3 4 4 4 5 5 5 6 6 6 5 5 5 5 6 6 6 6 7 7 7 7 7 8 8 8 7 7 8 7 7 7 6 7 5
4 4 4 3 3 3 4 4 4 4 4 5 5 5 5 5 5 6 6 6 5 5 7 7 7 7 7 7 7 7 7 7 8 8 8 7 7 7 7 7 6 6 5
4 4 4 4 4 4 4 4 4 5 5 5 6 6 6 6 6 6 6 5 5 6 7 7 7 7 7 7 7 6 7 7 7 8 8 7 7 7 7 7 7 7 7
5 4 4 4 4 4 5 4 4 5 5 5 6 5 6 6 6 6 6 6 6 7 7 7 7 7 7 7 7 7 7 7 7 6 8 8 7 7 7 7 7 8 8
5 5 5 4 5 5 4 4 4 5 5 5 6 6 6 6 6 6 7 6 6 7 7 7 7 7 7 7 7 7 7 7 7 7 7 7 7 7 7 7 7 7 8
5 5 5 5 5 5 4 5 5 5 6 6 6 6 6 6 6 6 7 7 7 7 7 8 7 7 7 7 7 8 7 7 8 8 7 8 6 7 6 6 7 8 8
5 5 5 5 5 5 5 5 5 6 6 6 6 6 6 6 7 7 7 7 7 7 7 7 7 7 7 8 8 7 7 7 8 7 7 8 7 7 6 6 7 7 7
5 5 5 5 5 5 6 6 6 6 6 6 6 6 7 7 7 7 7 7 7 7 6 7 7 7 7 7 8 7 7 7 7 7 7 7 7 7 7 6 7 6 7
5 5 5 6 6 6 6 6 6 6 6 6 7 7 7 7 7 7 7 7 6 6 6 6 7 7 6 6 7 7 7 7 7 7 7 7 7 8 7 6 6 7 6
6 6 6 6 6 6 6 6 6 6 6 6 7 7 6 6 7 6 6 6 6 6 6 6 6 7 6 8 10 9 7 7 7 7 7 7 8 8 9 9 9 8 8
6 6 6 6 6 6 6 6 6 6 6 6 6 6 6 6 6 6 6 6 6 6 6 6 6 7 8 9 10 10 8 7 7 8 7 6 6 8 7 8 9 9 9
6 6 6 6 6 6 6 6 6 6 6 6 6 6 6 6 6 6 6 6 6 6 6 6 7 7 8 9 10 10 8 7 7 7 8 8 7 7 7 7 7 8 8
6 6 5 5 5 6 6 5 6 6 6 6 6 7 6 7 7 6 6 6 6 6 6 7 7 7 8 8 9 10 7 7 7 7 7 8 8 8 9 7 7 8 7
5 5 4 5 5 5 5 5 6 6 6 6 7 7 7 7 7 7 7 6 6 7 7 7 7 7 7 8 9 9 6 6 6 6 7 8 8 8 9 7 7 8 7
5 4 4 4 5 5 4 5 6 6 7 7 7 7 7 7 7 7 6 6 6 6 6 7 6 7 7 8 8 9 6 6 6 6 6 6 8 9 9 9 7 8 8
4 4 4 5 5 5 4 6 6 7 6 6 7 7 7 6 5 6 6 6 6 6 6 6 6 5 6 7 8 9 9 9 7 7 6 6 8 9 9 8 7 8 8
4 4 4 5 5 5 5 6 7 7 6 6 7 7 7 5 5 5 5 5 5 4 5 5 5 5 5 6 8 9 9 10 8 7 8 9 9 8 7 8 8 7 6
4 4 4 5 6 6 6 6 6 6 6 6 6 6 6 4 4 3 4 4 4 4 5 5 5 5 5 5 5 5 6 7 7 6 6 7 7 6 6 6 5 5 5
4 4 4 5 6 7 7 6 6 5 5 6 6 6 5 4 3 3 3 4 4 5 6 5 5 5 6 7 9 8 6 6 5 5 4 3 4 4 4 4 4 4 4
4 4 5 5 6 6 6 6 6 5 5 5 5 5 4 3 3 4 4 5 5 7 8 8 7 6 8 10 10 10 10 8 6 4 3 4 4 4 4 4 4 4 4
Wind_Direction
226 221 213 202 160 92 22 0 357 357 355 348 335 317 304 301 307 319 319 316 318 312 302 297 289 283 266 264 266 262 257 249 249 258 258 254 241 231 227 226 223 220 224
229 230 228 212 215 241 320 330 343 343 340 332 318 285 291 282 289 302 302 302 311 312 305 298 292 283 276 260 258 258 257 259 232 249 246 241 226 223 230 230 227 225 222
241 235 237 236 239 251 277 291 309 316 326 326 320 320 308 298 292 293 293 301 302 300 299 296 291 283 277 262 257 253 251 253 241 233 235 237 236 242 222 230 228 225 226
253 256 248 250 256 271 268 277 288 302 315 316 312 304 296 297 292 283 282 291 291 292 293 293 289 282 274 267 258 254 256 252 246 240 244 253 255 246 234 224 227 230 235
264 267 260 253 264 283 276 271 283 291 305 301 298 293 292 295 298 290 281 284 286 288 289 288 286 281 276 270 260 254 253 252 249 242 244 251 249 243 244 237 231 238 238
278 273 271 270 272 287 287 277 281 289 293 290 291 290 291 296 299 290 286 285 285 287 290 290 288 284 280 274 268 259 251 251 254 249 240 243 242 236 240 243 233 238 242
277 282 283 282 288 286 289 283 283 291 296 294 287 284 288 290 290 292 283 285 282 286 287 292 287 282 281 279 274 263 255 251 252 249 245 245 248 246 247 252 248 242 246
281 283 280 284 287 293 292 288 287 290 299 298 292 284 282 283 287 292 290 283 283 284 287 286 284 284 284 282 277 266 256 252 250 251 250 248 249 249 245 243 248 244 241
283 284 288 284 285 292 294 287 286 289 294 293 290 286 285 281 284 287 288 281 286 292 289 284 283 285 284 280 277 270 264 259 254 252 252 252 251 249 248 241 237 239 237
285 291 296 287 285 289 293 291 286 286 291 294 292 289 287 286 286 285 286 288 288 290 289 287 284 283 282 278 273 272 267 265 263 258 252 251 252 250 247 241 241 242 240
287 289 292 292 294 294 296 299 294 293 294 295 292 289 289 290 289 286 286 289 291 292 288 286 285 283 282 279 274 271 266 263 265 261 257 257 256 251 250 245 241 241 240
286 289 292 293 297 299 299 301 297 292 292 291 289 288 292 293 290 290 291 291 289 290 289 285 283 284 282 279 273 272 269 263 263 263 262 261 259 255 257 254 247 244 240
292 297 299 300 300 301 300 297 294 294 294 294 291 291 294 294 291 290 293 293 289 288 287 285 283 281 281 278 273 271 269 265 263 263 261 261 257 257 257 256 256 250 244
292 300 302 304 306 302 297 294 295 298 301 296 290 289 292 292 289 289 290 290 287 286 285 284 284 281 278 276 274 272 268 264 263 263 262 261 258 258 261 255 256 249 245
293 296 299 304 308 306 301 298 298 303 303 297 294 293 294 293 291 290 289 288 287 287 286 285 285 284 281 275 277 275 268 264 265 264 262 262 263 264 263 262 260 248 242
289 294 296 297 300 301 303 301 301 305 302 295 295 298 299 297 294 291 289 289 290 290 288 285 285 285 283 288 289 286 274 267 264 264 263 264 261 264 267 269 269 259 242
289 290 290 290 294 297 300 301 298 301 298 295 296 297 298 298 297 295 290 288 287 287 285 286 286 284 285 290 292 293 285 273 269 267 265 266 267 267 265 266 266 266 262
287 289 291 295 301 301 299 300 299 295 292 294 297 300 300 296 296 290 285 285 286 283 282 283 284 285 286 290 292 294 286 278 271 267 264 264 265 264 266 263 262 262 259
286 286 288 294 298 299 303 303 300 296 292 293 297 299 296 292 292 285 284 285 283 283 282 282 282 282 287 292 294 294 283 274 272 268 265 264 264 265 264 261 261 266 271
293 295 299 300 297 302 307 301 298 297 295 297 297 297 293 288 286 281 281 283 281 280 283 282 282 281 283 290 293 292 282 278 276 274 269 263 265 265 262 258 257 260 265
298 303 302 299 299 305 304 297 299 299 302 302 301 299 295 288 281 278 278 280 280 280 281 282 283 281 282 289 291 292 286 282 280 276 276 271 269 265 265 264 260 262 269
302 302 301 305 308 308 302 299 300 304 306 305 304 302 298 290 280 278 280 279 276 277 279 281 285 286 288 291 292 294 294 294 286 279 276 275 273 270 268 267 267 272 274
294 297 299 307 312 313 305 299 305 310 309 308 307 306 304 290 281 277 276 277 273 273 277 281 286 293 296 297 300 300 301 298 292 283 280 280 277 275 268 264 268 268 264
292 296 300 306 312 315 312 305 307 308 308 308 310 309 306 301 298 289 274 273 271 272 276 283 288 294 297 297 304 303 302 300 294 288 284 281 277 275 274 269 263 261 262
296 296 297 303 308 313 313 314 314 312 311 312 312 312 306 301 302 298 290 281 278 277 280 282 286 289 292 300 311 313 306 303 299 303 293 285 284 281 277 278 277 270 267
297 300 304 305 309 312 313 316 318 313 309 309 311 311 308 304 298 300 304 304 300 305 305 302 297 295 297 309 313 316 318 319 318 308 284 280 276 276 278 280 283 278 271
Height
1528 1528 1528 1528 1528 1528 1528 1529 1528 1528 1527 1527 1527 1526 1526 1526 1525 1525 1525 1525 1524 1524 1523 1523 1523 1523 1523 1524 1524 1525 1525 1525 1526 1527 1528 1528 1529 1529 1530 1531 1532 1532 1533
1525 1525 1525 1525 1526 1526 1526 1526 1526 1526 1525 1525 1524 1524 1523 1523 1522 1522 1522 1521 1521 1520 1520 1520 1519 1519 1519 1520 1521 1521 1521 1522 1523 1525 1525 1526 1526 1525 1526 1527 1528 1529 1530
1523 1523 1522 1523 1523 1523 1523 1524 1523 1523 1523 1522 1522 1521 1520 1520 1520 1519 1518 1518 1517 1517 1517 1516 1516 1516 1516 1516 1517 1517 1518 1518 1519 1521 1523 1523 1521 1522 1522 1523 1524 1525 1526
1521 1521 1520 1520 1521 1521 1521 1521 1521 1521 1520 1520 1519 1518 1517 1516 1516 1515 1514 1514 1514 1514 1513 1513 1512 1512 1512 1512 1513 1513 1514 1515 1515 1516 1518 1519 1519 1520 1518 1519 1520 1521 1522
1519 1519 1518 1518 1518 1518 1518 1518 1518 1518 1518 1517 1516 1515 1515 1514 1513 1512 1511 1510 1510 1510 1509 1509 1508 1508 1508 1508 1508 1509 1509 1510 1511 1511 1512 1514 1514 1515 1515 1514 1515 1516 1517
1517 1517 1516 1516 1515 1515 1515 1515 1515 1515 1515 1514 1513 1513 1511 1510 1509 1508 1507 1506 1506 1505 1505 1505 1504 1504 1504 1504 1504 1504 1504 1505 1506 1507 1507 1509 1509 1510 1511 1510 1510 1511 1512
1515 1514 1513 1513 1512 1512 1512 1512 1512 1512 1511 1511 1510 1509 1508 1507 1505 1504 1503 1502 1501 1501 1501 1500 1500 1500 1499 1499 1499 1499 1499 1500 1501 1501 1502 1503 1504 1505 1506 1506 1506 1506 1507
1512 1512 1511 1510 1510 1510 1509 1509 1509 1508 1508 1507 1506 1506 1504 1503 1502 1500 1500 1499 1497 1496 1496 1496 1495 1495 1495 1494 1494 1494 1494 1494 1495 1496 1497 1497 1498 1499 1500 1501 1502 1502 1502
1510 1509 1508 1508 1507 1507 1506 1506 1505 1505 1504 1504 1503 1502 1500 1499 1498 1497 1496 1495 1493 1492 1492 1491 1491 1490 1490 1490 1490 1489 1489 1489 1489 1491 1491 1491 1492 1493 1494 1495 1497 1498 1497
1507 1507 1506 1505 1505 1504 1503 1502 1502 1501 1500 1499 1498 1497 1496 1495 1494 1493 1491 1490 1489 1489 1487 1486 1486 1485 1485 1485 1484 1484 1484 1484 1484 1485 1485 1486 1486 1487 1488 1489 1490 1491 1492
1505 1504 1503 1502 1502 1501 1500 1499 1498 1497 1496 1495 1494 1493 1492 1490 1489 1488 1487 1486 1485 1484 1483 1482 1481 1480 1480 1479 1479 1478 1478 1478 1478 1479 1479 1480 1481 1481 1482 1482 1483 1485 1486
1502 1501 1501 1500 1499 1497 1496 1495 1494 1493 1492 1491 1490 1489 1487 1486 1484 1483 1482 1481 1480 1479 1478 1477 1476 1475 1474 1474 1474 1473 1473 1473 1473 1472 1472 1473 1474 1474 1475 1476 1477 1478 1479
1499 1499 1498 1496 1495 1494 1492 1491 1490 1489 1488 1487 1486 1484 1483 1481 1480 1479 1477 1476 1475 1474 1473 1472 1470 1469 1469 1469 1468 1468 1467 1467 1467 1467 1467 1467 1468 1468 1469 1469 1470 1471 1473
1496 1495 1494 1493 1492 1490 1489 1487 1486 1485 1484 1483 1482 1480 1478 1477 1475 1474 1473 1472 1471 1469 1468 1467 1466 1464 1464 1463 1463 1463 1462 1462 1461 1461 1461 1461 1462 1462 1463 1463 1463 1465 1466
1494 1492 1491 1490 1489 1487 1485 1484 1482 1481 1480 1479 1477 1475 1474 1472 1471 1469 1468 1467 1466 1465 1464 1462 1461 1460 1459 1459 1458 1458 1457 1457 1456 1456 1456 1455 1456 1457 1457 1457 1457 1459 1460
1491 1490 1488 1487 1485 1483 1482 1480 1478 1477 1476 1474 1473 1471 1469 1468 1466 1465 1464 1462 1461 1460 1459 1458 1457 1455 1454 1454 1454 1453 1452 1452 1451 1450 1450 1450 1451 1451 1451 1451 1452 1453 1454
1488 1486 1485 1483 1481 1480 1478 1476 1475 1473 1472 1470 1469 1467 1465 1463 1462 1461 1459 1458 1457 1456 1455 1453 1452 1451 1450 1449 1449 1448 1448 1447 1446 1446 1445 1445 1445 1445 1445 1446 1446 1447 1448
1484 1482 1481 1479 1478 1476 1474 1473 1471 1469 1468 1466 1464 1463 1461 1459 1457 1456 1455 1453 1452 1451 1450 1449 1448 1446 1445 1445 1444 1444 1443 1442 1442 1441 1441 1440 1439 1439 1440 1440 1440 1441 1441
1481 1479 1477 1475 1474 1472 1471 1469 1467 1465 1464 1462 1460 1458 1456 1455 1453 1451 1450 1449 1448 1447 1446 1444 1443 1442 1441 1440 1440 1440 1439 1438 1437 1436 1436 1435 1434 1434 1435 1435 1434 1434 1435
1477 1475 1474 1472 1470 1469 1467 1465 1463 1461 1459 1457 1455 1454 1452 1450 1448 1447 1446 1445 1444 1442 1441 1440 1439 1438 1437 1436 1435 1435 1434 1433 1432 1431 1430 1429 1429 1429 1429 1430 1429 1429 1430
1474 1472 1470 1469 1467 1465 1463 1461 1459 1457 1455 1453 1451 1449 1447 1445 1444 1443 1442 1440 1439 1438 1437 1435 1435 1434 1433 1432 1431 1430 1429 1428 1427 1426 1425 1424 1423 1423 1424 1423 1423 1423 1424
1470 1469 1467 1465 1464 1462 1460 1457 1455 1453 1451 1449 1446 1444 1442 1441 1439 1438 1437 1436 1435 1433 1432 1431 1430 1430 1429 1428 1426 1425 1425 1424 1422 1421 1420 1419 1419 1418 1418 1417 1417 1417 1418
1467 1466 1464 1462 1460 1459 1456 1454 1451 1449 1447 1445 1442 1440 1437 1436 1435 1434 1433 1432 1431 1430 1429 1428 1426 1425 1424 1423 1422 1420 1419 1418 1417 1416 1414 1414 1413 1412 1412 1411 1411 1412 1412
1465 1463 1461 1459 1457 1455 1453 1450 1448 1446 1443 1441 1438 1435 1433 1432 1431 1430 1429 1428 1427 1426 1425 1424 1423 1421 1420 1419 1417 1416 1415 1413 1412 1411 1409 1409 1408 1407 1406 1406 1406 1406 1406
1462 1460 1458 1456 1454 1451 1449 1447 1445 1442 1440 1437 1434 1432 1430 1428 1427 1426 1425 1424 1423 1423 1422 1421 1420 1418 1416 1415 1414 1412 1410 1408 1407 1406 1405 1404 1403 1403 1402 1401 1401 1401 1401
1459 1457 1455 1453 1451 1449 1446 1444 1442 1439 1437 1434 1431 1429 1427 1425 1424 1423 1422 1421 1421 1420 1419 1418 1417 1415 1414 1412 1410 1408 1406 1404 1403 1402 1401 1400 1399 1399 1398 1397 1396 1396 1395